Tracking 28794 objects as of 19-Apr-2024
HD Live streaming from Space Station
objects crossing your sky now

FENGYUN 1C DEB

Track FENGYUN 1C DEB now!
10-day predictions


NORAD ID: 30404
Int'l Code: 1999-025ADT
Perigee: 852.7 km
Apogee: 1,435.7 km
Inclination: 99.8 °
Period: 108.1 minutes
Semi major axis: 7515 km
RCS: 0.0064 m2 (small)
Launch date: May 10, 1999
Source: People's Republic of China (PRC)
Launch site: Taiyaun Space Center, China (TSC)

Note: This is SATELLITE DEBRIS
Your satellite tracking list
Your tracking list is empty




NASA's NSSDC Master Catalog

Two Line Element Set (TLE):
1 30404U 99025ADT 24107.04902477  .00001275  00000-0  17763-2 0  9994
2 30404  99.8213 216.1638 0387878 154.7750 207.2883 13.32577545499635
Source of the keplerian elements: AFSPC